Domov               UVHVVR             MKGP            O straneh              
ZDRAVSTVENO VARSTVO RASTLIN
  MREŽA AGROMET. POSTAJ
 ► PROGNOSTIČNA OBVESTILA
AGROMETEOROLOŠKI PODATKI -
ARSO
OBVLADOVANJE TVEGANJ ZARADI
NEUGODNIH VREMENSKIH RAZMER
  ► NARAVNE NESREČE
  ► SUŠA/MOČA
  ► NAMAKANJE
  ► ŽLED (gozdarstvo)
KARTOGRAFSKI PRIKAZI
SPLETNE POVEZAVE
PROJEKTI IN PUBLIKACIJE

AGROMETEOROLOŠKA MREŽA: VREMENSKE POSTAJE IN FENOLOŠKA OPAZOVANJA

Pregled podatkov za lokacijo Dragonja, meteorološka postaja 42389

Pregled senzorjev na lokaciji

ID Ime Zadnja
vrednost
Datum
zadnje
spremembe
Tip
senzorja
2095 Temperatura 2 m ( °C) 17,11 °C 18.10.2017 17:30 50YA
2096 Relativna vlaga 2 m (% RH) 73,52 % RH 18.10.2017 17:30 50YA
2097 Omočenost lista (U) 0 U 18.10.2017 17:30 A730WET
2098 Padavine 0.2 mm (mm) 0 mm 18.10.2017 17:30 Rain-O-Matic

Pregled podatkov zadnjih 24 ur

Zap.
št.
Datum in čas Dragonja
Omočenost
lista
Padavine
0.2
mm
Relativna
vlaga
2
m
Temperatura
2
m
0 18.10.2017 16:30 0 0 73,52 17,11
1 18.10.2017 16:00 0 0 69,27 18
2 18.10.2017 15:30 0 0 66,29 18,76
3 18.10.2017 15:00 0 0 63,48 19,63
4 18.10.2017 14:30 0 0 62,55 20,13
5 18.10.2017 14:00 0 0 60,69 20,6
6 18.10.2017 13:30 0 0 59,55 20,69
7 18.10.2017 13:00 0 0 57,81 21,03
8 18.10.2017 12:30 0 0 59,04 20,63
9 18.10.2017 12:00 0 0 62,79 19,64
10 18.10.2017 11:30 0 0 66,79 18,73
11 18.10.2017 11:00 0 0 75,11 17,48
12 18.10.2017 10:30 0 0 93,27 15,58
13 18.10.2017 10:00 0 0 99,96 14,13
14 18.10.2017 09:30 0 0 100 13,22
15 18.10.2017 09:00 0 0 100 12,07
16 18.10.2017 08:30 0 0 100 11,2
17 18.10.2017 08:00 0 0 100 10,08
18 18.10.2017 07:30 0 0 100 9,22
19 18.10.2017 07:00 0 0 100 8,64
20 18.10.2017 06:30 0 0,2 100 8,15
21 18.10.2017 06:00 0 0 100 7,29
22 18.10.2017 05:30 0 0 100 7,34
23 18.10.2017 05:00 0 0 100 7,42
24 18.10.2017 04:30 0 0 100 7,64
25 18.10.2017 04:00 0 0 100 8,08
26 18.10.2017 03:30 0 0 100 8,28
27 18.10.2017 03:00 0 0 100 8,99
28 18.10.2017 02:30 0 0 100 9,02
29 18.10.2017 02:00 0 0 100 9,14
30 18.10.2017 01:30 0 0 99,88 9,48
31 18.10.2017 01:00 0 0 100 9,84
32 18.10.2017 00:30 0 0 99,33 9,88
33 18.10.2017 00:00 0 0 98,32 10,25
34 17.10.2017 23:30 0 0 98,2 10,67
35 17.10.2017 23:00 0 0 97,41 11,11
36 17.10.2017 22:30 0 0 97,59 11,49
37 17.10.2017 22:00 0 0 96,21 11,67
38 17.10.2017 21:30 0 0 96,07 12,1
39 17.10.2017 21:00 0 0 95,08 12,37
40 17.10.2017 20:30 0 0 94,72 12,62
41 17.10.2017 20:00 0 0 93,54 12,75
42 17.10.2017 19:30 0 0 92,95 13,11
43 17.10.2017 19:00 0 0 92,14 13,32
44 17.10.2017 18:30 0 0 91,27 13,7
© 2011 Ministrstvo za kmetijstvo, gozdarstvo in prehrano. Vse pravice pridržane.